GW3840 Weather Reports


time (UTC)temp
C
wind
direction
speed
KPH
gust
KPH
rain 1hr
cm
rain 24hr
cm
rain mn
cm
humidity
%
barometer
mb
20260903224320 32 164 1.6 9.7 0.00 0.00 0.00 62 1008.3
20260903223815 32 177 3.2 4.8 0.00 0.00 0.00 61 1008.2
20260903223309 31 164 1.6 9.7 0.00 0.00 0.00 62 1008.3
20260903222804 31 251 1.6 6.4 0.00 0.00 0.00 62 1008.2
20260903222305 31 138 4.8 12.9 0.00 0.00 0.00 62 1008.1
20260903221757 32 247 1.6 14.5 0.00 0.00 0.00 61 1008.3
20260903221256 32 80 6.4 9.7 0.00 0.00 0.00 60 1008.3
20260903220754 32 139 1.6 6.4 0.00 0.00 0.00 61 1008.4
20260903220249 32 151 3.2 6.4 0.00 0.00 0.00 62 1008.5
20260903215742 32 86 3.2 9.7 0.00 0.00 0.00 60 1008.4
20260903215238 32 108 1.6 6.4 0.00 0.00 0.00 62 1008.5
20260903214735 31 82 6.4 12.9 0.00 0.00 0.00 61 1008.5
20260903214232 32 255 3.2 9.7 0.00 0.00 0.00 61 1008.7
20260903213725 32 174 1.6 11.3 0.00 0.00 0.00 60 1008.5
20260903213222 32 150 8.0 16.1 0.00 0.00 0.00 61 1008.5
20260903212712 32 109 4.8 14.5 0.00 0.00 0.00 59 1008.6
20260903212208 32 301 1.6 4.8 0.00 0.00 0.00 58 1008.6
20260903211702 32 67 3.2 9.7 0.00 0.00 0.00 57 1008.5
20260903211159 32 275 8.0 11.3 0.00 0.00 0.00 57 1008.7
20260903210654 32 327 4.8 6.4 0.00 0.00 0.00 57 1008.4
20260903210150 32 242 8.0 9.7 0.00 0.00 0.00 58 1008.6
20260903205649 32 225 8.0 11.3 0.00 0.00 0.00 58 1008.5
20260903205148 32 178 3.2 6.4 0.00 0.00 0.00 59 1008.5
20260903204644 32 83 9.7 14.5 0.00 0.00 0.00 58 1008.4
20260903204140 32 202 1.6 9.7 0.00 0.00 0.00 58 1008.4
20260903203635 31 103 8.0 12.9 0.00 0.00 0.00 62 1008.1
20260903203130 32 99 9.7 14.5 0.00 0.00 0.00 60 1008.3
20260903202625 31 139 6.4 9.7 0.00 0.00 0.00 60 1008.2
20260903202120 32 175 4.8 6.4 0.00 0.00 0.00 59 1008.3
20260903201614 31 124 4.8 17.7 0.00 0.00 0.00 63 1008.4
20260903201114 32 94 14.5 17.7 0.00 0.00 0.00 59 1008.4
20260903200609 32 193 3.2 9.7 0.00 0.00 0.00 57 1008.4
20260903200104 32 189 4.8 11.3 0.00 0.00 0.00 58 1008.3
20260903195600 32 91 3.2 11.3 0.00 0.00 0.00 57 1008.4
20260903195055 32 190 9.7 14.5 0.00 0.00 0.00 57 1008.3
20260903194545 32 143 3.2 4.8 0.00 0.00 0.00 58 1008.2
20260903194040 32 81 6.4 14.5 0.00 0.00 0.00 58 1008.4
20260903193531 31 84 4.8 12.9 0.00 0.00 0.00 59 1008.2
20260903193026 31 54 11.3 14.5 0.00 0.00 0.00 60 1008.4
20260903192522 32 144 9.7 16.1 0.00 0.00 0.00 59 1008.4
20260903192017 32 205 1.6 9.7 0.00 0.00 0.00 57 1008.5
20260903191513 31 218 3.2 6.4 0.00 0.00 0.00 60 1008.4
20260903191013 31 155 6.4 14.5 0.00 0.00 0.00 59 1008.5
20260903190506 31 163 3.2 12.9 0.00 0.00 0.00 58 1008.7
20260903190000 31 237 6.4 11.3 0.00 0.00 0.00 59 1008.8
20260903185456 31 170 8.0 16.1 0.00 0.00 0.00 60 1009.0
20260903184956 31 228 11.3 20.9 0.00 0.00 0.00 59 1009.0
20260903184448 32 240 9.7 12.9 0.00 0.00 0.00 57 1009.1
20260903183947 31 151 6.4 11.3 0.00 0.00 0.00 60 1009.1
20260903183442 31 235 8.0 12.9 0.00 0.00 0.00 59 1009.3
20260903182942 31 301 1.6 14.5 0.00 0.00 0.00 59 1009.3
20260903182441 31 145 8.0 20.9 0.00 0.00 0.00 61 1009.5
20260903181936 31 160 3.2 11.3 0.00 0.00 0.00 60 1009.3
20260903181430 31 84 6.4 11.3 0.00 0.00 0.00 61 1009.3
20260903180930 31 170 3.2 12.9 0.00 0.00 0.00 60 1009.5
20260903180425 30 155 4.8 14.5 0.00 0.00 0.00 60 1009.7
20260903175924 31 242 9.7 17.7 0.00 0.00 0.00 61 1009.7
20260903175419 30 244 1.6 4.8 0.00 0.00 0.00 60 1009.5
20260903174913 30 2 3.2 6.4 0.00 0.00 0.00 62 1009.7
20260903174408 30 84 6.4 16.1 0.00 0.00 0.00 63 1009.6
20260903173903 30 98 3.2 14.5 0.00 0.00 0.00 63 1009.7
20260903173358 30 184 3.2 4.8 0.00 0.00 0.00 63 1010.0
20260903172853 30 142 6.4 12.9 0.00 0.00 0.00 62 1009.9
20260903172348 30 73 3.2 22.5 0.00 0.00 0.00 63 1010.1
20260903171843 29 194 1.6 9.7 0.00 0.00 0.00 64 1010.1
20260903171338 30 99 6.4 14.5 0.00 0.00 0.00 62 1009.9
20260903170837 29 223 3.2 11.3 0.00 0.00 0.00 64 1010.3
20260903170333 29 221 3.2 4.8 0.00 0.00 0.00 62 1010.0
20260903165831 29 157 3.2 11.3 0.00 0.00 0.00 63 1010.2
20260903165331 29 205 4.8 9.7 0.00 0.00 0.00 62 1010.1
20260903164826 30 55 4.8 16.1 0.00 0.00 0.00 63 1010.1
20260903164321 29 101 3.2 6.4 0.00 0.00 0.00 63 1010.1
20260903163820 28 98 6.4 12.9 0.00 0.00 0.00 65 1010.4
20260903163318 28 92 6.4 24.1 0.00 0.00 0.00 66 1010.3
20260903162813 28 171 3.2 4.8 0.00 0.00 0.00 65 1010.2
20260903162309 28 238 1.6 4.8 0.00 0.00 0.00 67 1010.2
20260903161805 28 169 3.2 11.3 0.00 0.00 0.00 68 1010.3
20260903161300 28 64 3.2 17.7 0.00 0.00 0.00 69 1010.4
20260903160756 28 158 8.0 12.9 0.00 0.00 0.00 69 1010.2
20260903160255 28 57 3.2 6.4 0.00 0.00 0.00 66 1010.3
20260903155753 28 169 4.8 16.1 0.00 0.00 0.00 69 1010.4
20260903155248 27 94 8.0 11.3 0.00 0.00 0.00 68 1010.4
20260903154744 27 84 11.3 14.5 0.00 0.00 0.00 71 1010.4
20260903154240 27 94 8.0 12.9 0.00 0.00 0.00 69 1010.3
20260903153735 27 104 8.0 12.9 0.00 0.00 0.00 71 1010.4
20260903153231 26 149 11.3 22.5 0.00 0.00 0.00 74 1010.4
20260903152727 26 79 12.9 17.7 0.00 0.00 0.00 75 1010.3
20260903152223 26 48 6.4 22.5 0.00 0.00 0.00 74 1010.3
20260903151722 26 71 8.0 14.5 0.00 0.00 0.00 76 1010.5
20260903151218 26 83 6.4 9.7 0.00 0.00 0.00 76 1010.4
20260903150713 26 80 9.7 16.1 0.00 0.00 0.00 75 1010.6
20260903150207 25 127 3.2 16.1 0.00 0.00 0.00 78 1010.7
20260903145702 24 173 3.2 11.3 0.00 0.00 0.00 80 1010.7
20260903145157 24 65 3.2 12.9 0.00 0.00 0.00 81 1010.5
20260903144656 25 98 4.8 14.5 0.00 0.00 0.00 80 1011.2
20260903144152 23 97 8.0 9.7 0.00 0.00 0.00 80 1011.0
20260903143648 23 153 4.8 14.5 0.00 0.00 0.00 82 1010.9
20260903143143 23 158 3.2 12.9 0.00 0.00 0.00 82 1010.8
20260903142639 23 95 11.3 22.5 0.00 0.00 0.00 83 1010.9
20260903142136 23 175 3.2 12.9 0.00 0.00 0.00 82 1011.0
20260903141631 22 135 3.2 17.7 0.00 0.00 0.00 84 1011.0
20260903141125 22 138 1.6 9.7 0.00 0.00 0.00 83 1011.2
20260903140622 23 108 4.8 11.3 0.00 0.00 0.00 82 1011.3
20260903140117 23 111 11.3 16.1 0.00 0.00 0.00 82 1011.2
20260903135612 22 124 6.4 14.5 0.00 0.00 0.00 83 1011.2
20260903135107 22 48 6.4 14.5 0.00 0.00 0.00 84 1011.2
20260903134606 22 17 4.8 12.9 0.00 0.00 0.00 84 1011.1
20260903134102 22 121 9.7 12.9 0.00 0.00 0.00 84 1011.0
20260903133559 22 126 4.8 11.3 0.00 0.00 0.00 84 1011.1
20260903133055 22 80 3.2 9.7 0.00 0.00 0.00 84 1011.4
20260903132550 21 114 6.4 12.9 0.00 0.00 0.00 85 1011.2
20260903132044 21 195 4.8 12.9 0.00 0.00 0.00 85 1011.2
20260903131544 21 116 8.0 11.3 0.00 0.00 0.00 85 1011.3
20260903131038 21 100 11.3 14.5 0.00 0.00 0.00 85 1011.3
20260903130532 21 114 6.4 11.3 0.00 0.00 0.00 85 1011.3
20260903130027 21 170 3.2 11.3 0.00 0.00 0.00 85 1011.4
20260903125525 20 98 6.4 6.4 0.00 0.00 0.00 85 1011.4
20260903125021 20 72 8.0 9.7 0.00 0.00 0.00 86 1011.5
20260903124515 20 84 3.2 6.4 0.00 0.00 0.00 86 1011.3
20260903124015 20 154 3.2 11.3 0.00 0.00 0.00 86 1011.5
20260903123509 20 68 1.6 11.3 0.00 0.00 0.00 87 1011.5
20260903123008 20 124 3.2 6.4 0.00 0.00 0.00 87 1011.3
20260903122502 20 94 3.2 11.3 0.00 0.00 0.00 87 1011.3
20260903122002 20 95 6.4 6.4 0.00 0.00 0.00 87 1011.4
20260903121456 19 83 6.4 9.7 0.00 0.00 0.00 87 1011.4
20260903120953 19 97 3.2 4.8 0.00 0.00 0.00 87 1011.6
20260903120451 19 64 4.8 9.7 0.00 0.00 0.00 87 1011.7
20260903115950 19 81 3.2 12.9 0.00 0.00 0.00 87 1011.6
20260903115449 19 96 4.8 6.4 0.00 0.00 0.00 87 1011.6
20260903114944 19 52 3.2 4.8 0.00 0.00 0.00 87 1011.5
20260903114440 19 113 3.2 6.4 0.00 0.00 0.00 86 1011.6
20260903113935 19 93 6.4 11.3 0.00 0.00 0.00 86 1011.4
20260903113432 19 59 4.8 6.4 0.00 0.00 0.00 87 1011.7
20260903112931 19 117 4.8 9.7 0.00 0.00 0.00 86 1011.7
20260903112427 19 77 4.8 6.4 0.00 0.00 0.00 86 1011.9
20260903111926 19 53 3.2 6.4 0.00 0.00 0.00 86 1011.8
20260903111421 20 280 0.0 6.4 0.00 0.00 0.00 85 1011.9
20260903110918 20 115 1.6 6.4 0.00 0.00 0.00 85 1011.9
20260903110413 19 54 3.2 3.2 0.00 0.00 0.00 85 1011.8
20260903105908 20 101 0.0 4.8 0.00 0.00 0.00 84 1011.8
20260903105403 20 114 1.6 6.4 0.00 0.00 0.00 84 1011.8
20260903104902 20 105 3.2 4.8 0.00 0.00 0.00 84 1011.8
20260903104357 20 113 6.4 9.7 0.00 0.00 0.00 84 1011.7
20260903103854 20 205 0.0 1.6 0.00 0.00 0.00 84 1011.5
20260903103350 20 81 6.4 6.4 0.00 0.00 0.00 83 1011.6
20260903102844 20 85 3.2 4.8 0.00 0.00 0.00 83 1011.6
20260903102339 20 87 3.2 6.4 0.00 0.00 0.00 82 1011.5
20260903101838 20 105 1.6 4.8 0.00 0.00 0.00 82 1011.5
20260903101328 20 77 3.2 4.8 0.00 0.00 0.00 82 1011.4
20260903100823 20 67 3.2 4.8 0.00 0.00 0.00 82 1011.6
20260903100318 20 66 3.2 4.8 0.00 0.00 0.00 82 1011.6
20260903095815 20 49 3.2 9.7 0.00 0.00 0.00 81 1011.5
20260903095309 20 98 1.6 9.7 0.00 0.00 0.00 81 1011.7
20260903094805 20 131 3.2 6.4 0.00 0.00 0.00 81 1011.8
20260903094304 20 94 4.8 6.4 0.00 0.00 0.00 81 1011.8
20260903093800 20 108 6.4 6.4 0.00 0.00 0.00 81 1011.8
20260903093255 20 125 0.0 6.4 0.00 0.00 0.00 81 1011.8
20260903092756 20 138 6.4 9.7 0.00 0.00 0.00 80 1011.9
20260903092250 20 77 1.6 4.8 0.00 0.00 0.00 81 1011.9
20260903091749 20 85 3.2 3.2 0.00 0.00 0.00 80 1012.1
20260903091243 20 94 4.8 6.4 0.00 0.00 0.00 80 1011.9
20260903090739 20 81 1.6 11.3 0.00 0.00 0.00 80 1011.8
20260903090238 20 67 1.6 6.4 0.00 0.00 0.00 79 1012.0
20260903085737 20 45 3.2 4.8 0.00 0.00 0.00 80 1012.0
20260903085232 20 180 0.0 1.6 0.00 0.00 0.00 80 1011.9
20260903084730 20 146 1.6 3.2 0.00 0.00 0.00 80 1012.0
20260903084220 20 80 3.2 3.2 0.00 0.00 0.00 79 1012.0
20260903083715 20 96 3.2 4.8 0.00 0.00 0.00 79 1012.0
20260903083209 20 65 4.8 4.8 0.00 0.00 0.00 79 1012.1
20260903082703 20 100 1.6 9.7 0.00 0.00 0.00 79 1012.1
20260903082200 20 82 1.6 1.6 0.00 0.00 0.00 78 1011.9
20260903081659 20 75 3.2 6.4 0.00 0.00 0.00 78 1012.0
20260903081155 20 167 0.0 1.6 0.00 0.00 0.00 78 1012.5
20260903080651 20 82 1.6 4.8 0.00 0.00 0.00 77 1012.0
20260903080149 20 112 3.2 6.4 0.00 0.00 0.00 77 1012.0
20260903075647 20 99 3.2 9.7 0.00 0.00 0.00 77 1012.2
20260903075143 20 98 1.6 9.7 0.00 0.00 0.00 77 1012.4
20260903074642 20 120 1.6 14.5 0.00 0.00 0.00 77 1012.5
20260903074137 20 89 1.6 1.6 0.00 0.00 0.00 78 1012.2
20260903073637 20 214 1.6 4.8 0.00 0.00 0.00 78 1012.2
20260903073133 20 130 1.6 4.8 0.00 0.00 0.00 78 1012.5
20260903072629 20 141 3.2 4.8 0.00 0.00 0.00 78 1012.5
20260903072125 20 12 3.2 4.8 0.00 0.00 0.00 78 1012.5
20260903071622 20 119 1.6 4.8 0.00 0.00 0.00 77 1012.8
20260903071117 20 77 3.2 12.9 0.00 0.00 0.00 77 1012.6
20260903070617 21 71 3.2 6.4 0.00 0.00 0.00 77 1012.8
20260903070113 21 87 4.8 6.4 0.00 0.00 0.00 78 1012.6
20260903065612 21 95 3.2 4.8 0.00 0.00 0.00 78 1012.9
20260903065106 21 82 1.6 3.2 0.00 0.00 0.00 79 1013.0
20260903064600 21 118 1.6 6.4 0.00 0.00 0.00 78 1013.2
20260903064055 21 125 0.0 3.2 0.00 0.00 0.00 78 1013.1
20260903063550 21 66 3.2 4.8 0.00 0.00 0.00 77 1013.0
20260903063046 21 48 1.6 3.2 0.00 0.00 0.00 77 1012.9
20260903062541 21 108 1.6 4.8 0.00 0.00 0.00 77 1013.0
20260903062037 21 119 4.8 4.8 0.00 0.00 0.00 77 1013.2
20260903061532 21 55 0.0 4.8 0.00 0.00 0.00 77 1013.1
20260903061032 21 73 4.8 9.7 0.00 0.00 0.00 76 1013.0
20260903060531 21 69 1.6 4.8 0.00 0.00 0.00 76 1012.9
20260903060027 21 120 0.0 4.8 0.00 0.00 0.00 77 1012.9
20260903055524 21 148 0.0 4.8 0.00 0.00 0.00 77 1013.1
20260903055023 21 123 1.6 4.8 0.00 0.00 0.00 77 1013.0
20260903054518 21 189 0.0 6.4 0.00 0.00 0.00 77 1013.2
20260903054014 21 138 0.0 3.2 0.00 0.00 0.00 77 1013.0
20260903053508 21 109 1.6 3.2 0.00 0.00 0.00 77 1013.0
20260903053005 21 21 1.6 4.8 0.00 0.00 0.00 77 1013.2
20260903052501 21 78 3.2 4.8 0.00 0.00 0.00 77 1013.1
20260903051956 21 88 1.6 4.8 0.00 0.00 0.00 76 1013.2
20260903051451 21 112 1.6 4.8 0.00 0.00 0.00 76 1013.3
20260903050947 21 83 0.0 4.8 0.00 0.00 0.00 76 1013.5
20260903050446 21 67 4.8 4.8 0.00 0.00 0.00 75 1013.4
20260903045941 21 83 4.8 12.9 0.00 0.00 0.00 74 1013.5
20260903045436 21 96 3.2 11.3 0.00 0.00 0.00 75 1013.4
20260903044932 22 49 3.2 9.7 0.00 0.00 0.00 74 1013.4
20260903044427 21 139 4.8 9.7 0.00 0.00 0.00 75 1013.7
20260903043924 22 136 1.6 4.8 0.00 0.00 0.00 75 1013.5
20260903043419 22 59 1.6 4.8 0.00 0.00 0.00 76 1013.6
20260903042917 22 107 1.6 6.4 0.00 0.00 0.00 75 1013.5
20260903042413 22 99 1.6 6.4 0.00 0.00 0.00 74 1013.4
20260903041908 22 109 1.6 4.8 0.00 0.00 0.00 74 1013.6
20260903041405 22 161 1.6 3.2 0.00 0.00 0.00 74 1013.5
20260903040900 22 66 3.2 6.4 0.00 0.00 0.00 74 1013.8
20260903040359 22 98 3.2 9.7 0.00 0.00 0.00 74 1013.5
20260903035855 22 69 3.2 4.8 0.00 0.00 0.00 74 1013.6
20260903035350 22 92 4.8 6.4 0.00 0.00 0.00 74 1013.6
20260903034846 22 88 1.6 4.8 0.00 0.00 0.00 73 1013.7
20260903034341 22 93 3.2 11.3 0.00 0.00 0.00 73 1013.6
20260903033835 22 111 3.2 9.7 0.00 0.00 0.00 73 1013.7
20260903033331 23 33 1.6 6.4 0.00 0.00 0.00 72 1013.6
20260903032830 23 95 4.8 9.7 0.00 0.00 0.00 71 1013.6
20260903032326 23 78 3.2 6.4 0.00 0.00 0.00 71 1013.5
20260903031821 23 106 3.2 6.4 0.00 0.00 0.00 71 1013.6
20260903031320 23 86 3.2 4.8 0.00 0.00 0.00 70 1013.7
20260903030816 23 101 3.2 6.4 0.00 0.00 0.00 70 1013.7
20260903030312 23 79 3.2 9.7 0.00 0.00 0.00 69 1013.6
20260903025808 23 103 3.2 6.4 0.00 0.00 0.00 69 1013.6
20260903025305 23 87 1.6 3.2 0.00 0.00 0.00 70 1013.8
20260903024757 23 67 0.0 6.4 0.00 0.00 0.00 70 1013.5
20260903024257 23 66 1.6 3.2 0.00 0.00 0.00 70 1013.5
20260903023753 23 81 3.2 3.2 0.00 0.00 0.00 71 1013.7
20260903023248 23 170 0.0 1.6 0.00 0.00 0.00 70 1013.6
20260903022742 23 177 0.0 3.2 0.00 0.00 0.00 70 1013.4
20260903022241 23 89 1.6 3.2 0.00 0.00 0.00 70 1013.7
20260903021736 23 37 1.6 3.2 0.00 0.00 0.00 70 1013.5
20260903021232 23 178 0.0 3.2 0.00 0.00 0.00 69 1013.8
20260903020731 23 100 1.6 1.6 0.00 0.00 0.00 69 1013.6
20260903020226 23 77 0.0 3.2 0.00 0.00 0.00 68 1013.5
20260903015722 23 186 0.0 1.6 0.00 0.00 0.00 68 1013.6
20260903015217 23 116 0.0 1.6 0.00 0.00 0.00 67 1013.6
20260903014712 23 189 0.0 0.0 0.00 0.00 0.00 66 1013.5
20260903014211 24 144 0.0 0.0 0.00 0.00 0.00 65 1013.5
20260903013706 24 160 0.0 1.6 0.00 0.00 0.00 64 1013.7
20260903013205 25 66 0.0 3.2 0.00 0.00 0.00 62 1013.3
20260903012704 25 115 1.6 3.2 0.00 0.00 0.00 62 1013.5
20260903012203 25 85 1.6 4.8 0.00 0.00 0.00 61 1013.5
20260903011658 25 191 0.0 0.0 0.00 0.00 0.00 60 1013.3
20260903011158 25 158 0.0 4.8 0.00 0.00 0.00 59 1013.0
20260903010653 25 69 3.2 4.8 0.00 0.00 0.00 58 1013.2
20260903010153 25 86 3.2 4.8 0.00 0.00 0.00 58 1013.2
20260903005646 26 156 0.0 3.2 0.00 0.00 0.00 57 1013.2
20260903005142 26 155 1.6 1.6 0.00 0.00 0.00 57 1013.1
20260903004637 26 162 0.0 3.2 0.00 0.00 0.00 56 1013.1
20260903004131 26 90 3.2 3.2 0.00 0.00 0.00 56 1013.1
20260903003627 26 85 1.6 3.2 0.00 0.00 0.00 55 1013.2
20260903003122 26 34 3.2 9.7 0.00 0.00 0.00 55 1013.0
20260903002618 26 70 1.6 3.2 0.00 0.00 0.00 55 1012.9
20260903002112 26 113 4.8 4.8 0.00 0.00 0.00 54 1012.9
20260903001607 26 124 1.6 4.8 0.00 0.00 0.00 55 1013.1
20260903001106 26 79 3.2 9.7 0.00 0.00 0.00 54 1012.7
20260903000602 26 110 1.6 4.8 0.00 0.00 0.00 54 1012.8
20260903000055 26 78 4.8 6.4 0.00 0.00 0.00 54 1012.6
20260902235549 27 113 1.6 11.3 0.00 0.00 0.00 54 1012.8
20260902235044 27 117 3.2 6.4 0.00 0.00 0.00 52 1012.8
20260902234544 27 119 6.4 9.7 0.00 0.00 0.00 52 1013.0
20260902234042 27 112 3.2 6.4 0.00 0.00 0.00 52 1013.0
20260902233537 27 2 3.2 6.4 0.00 0.00 0.00 52 1013.0
20260902233032 27 171 3.2 4.8 0.00 0.00 0.00 52 1013.2
20260902232531 28 59 6.4 12.9 0.00 0.00 0.00 51 1012.9
20260902232025 28 77 1.6 6.4 0.00 0.00 0.00 52 1013.0
20260902231520 28 14 3.2 9.7 0.00 0.00 0.00 50 1013.0
20260902231015 28 83 4.8 9.7 0.00 0.00 0.00 50 1013.0
20260902230514 28 87 4.8 6.4 0.00 0.00 0.00 50 1012.9
20260902230009 28 68 1.6 11.3 0.00 0.00 0.00 50 1012.9
20260902225504 28 82 1.6 4.8 0.00 0.00 0.00 50 1013.0
20260902225003 28 89 3.2 9.7 0.00 0.00 0.00 50 1013.3